Date String (YYYY-MM-DD hh:mm:ss) UTC,Instrument flags,absolute air pressure of the measurement (hPa),sample flow rate (lpm),inlet stack bypass flow (lpm),air temperature of the measurement (°C),ambient temperature measured by the external sensor (°C),aerosol sample conditioner tube jacket temperature (°C),OPC LED temperature (°C),internal box temperature (°C),relative humidity of the measurement (%),span deviation,mass concentration of particles derived from Lorenz-Mie calculation of OPC scattering (μg/m³),mass concentration of particles derived from Lorenz-Mie calculation of OPC scattering (μg/m³),mass concentration of particles derived from Lorenz-Mie calculation of OPC scattering (μg/m³)
DateTimeUTC,F1_M11,P_M11,Q1_M11,Q2_M11,T1_M11,T2_M11,T3_M11,T4_M11,T5_M11,U1_M11,ZSPAN_M11,X0_M11,X2_M11,X1_M11
2023-09-28 06:00:00,SystemResetWarning,0828.3,5.01,000.00,028.4,027.2,000.0,036.8,030.2,13.9,0000.0,0014.83,0006.19,0005.27
2023-09-28 06:01:00,SystemResetWarning,0828.4,5.00,000.00,028.4,027.3,000.0,036.9,030.3,13.9,0000.0,0014.91,0006.18,0005.27
2023-09-28 06:02:00,SystemResetWarning,0828.3,5.01,000.00,028.5,027.4,000.0,036.9,030.3,13.9,0000.0,0014.64,0006.18,0005.27
2023-09-28 06:03:00,SystemResetWarning,0828.4,4.99,000.00,028.5,027.4,000.0,036.9,030.3,13.7,0000.0,0014.04,0006.20,0005.27
2023-09-28 06:04:00,SystemResetWarning,0828.3,4.99,000.00,028.5,027.4,000.0,036.9,030.4,13.7,0000.0,0013.37,0006.23,0005.27
2023-09-28 06:05:00,SystemResetWarning,0828.4,4.99,000.00,028.6,027.5,000.0,036.9,030.4,13.6,0000.0,0013.44,0006.24,0005.26
2023-09-28 06:06:00,SystemResetWarning,0828.3,5.00,000.00,028.6,027.5,000.0,037.0,030.4,13.5,0000.0,0013.65,0006.29,0005.24
2023-09-28 06:07:00,SystemResetWarning,0828.3,4.99,000.00,028.6,027.3,000.0,037.0,030.4,13.5,0000.0,0013.67,0006.25,0005.23
2023-09-28 06:08:00,SystemResetWarning,0828.3,5.00,000.00,028.6,025.4,000.0,036.9,030.2,13.2,0000.0,0014.38,0006.24,0005.22
2023-09-28 06:09:00,SystemResetWarning,0828.3,5.00,000.00,028.5,024.5,000.0,036.9,030.1,13.3,0000.0,0014.37,0006.22,0005.23
2023-09-28 06:10:00,SystemResetWarning,0828.3,5.02,000.00,028.4,024.6,000.0,036.8,029.9,13.4,0000.0,0013.60,0006.18,0005.22
2023-09-28 06:11:00,SystemResetWarning,0828.3,5.00,000.00,028.3,024.9,000.0,036.9,029.8,13.6,0000.0,0013.20,0006.08,0005.21
2023-09-28 06:12:00,SystemResetWarning,0828.3,5.00,000.00,028.3,025.3,000.0,036.9,029.9,13.0,0000.0,0013.56,0006.07,0005.20
2023-09-28 06:13:00,SystemResetWarning,0828.3,5.00,000.00,028.3,025.6,000.0,036.8,029.9,12.6,0000.0,0013.09,0006.05,0005.19
2023-09-28 06:14:00,SystemResetWarning,0828.3,5.01,000.00,028.2,025.9,000.0,036.8,029.9,12.4,0000.0,0012.58,0006.00,0005.19
2023-09-28 06:15:00,SystemResetWarning,0828.3,5.00,000.00,028.2,026.2,000.0,036.8,030.0,12.4,0000.0,0012.85,0005.94,0005.19
2023-09-28 06:16:00,SystemResetWarning,0828.3,5.00,000.00,028.3,026.4,000.0,036.8,030.0,12.2,0000.0,0013.03,0005.92,0005.19
2023-09-28 06:17:00,SystemResetWarning,0828.3,5.00,000.00,028.3,026.6,000.0,036.8,030.0,12.1,0000.0,0013.09,0005.90,0005.19
2023-09-28 06:18:00,SystemResetWarning,0828.3,4.99,000.00,028.3,026.8,000.0,036.8,030.1,12.0,0000.0,0012.98,0005.92,0005.20
2023-09-28 06:19:00,SystemResetWarning,0828.3,5.00,000.00,028.3,026.9,000.0,036.8,030.1,12.0,0000.0,0012.24,0005.93,0005.20
2023-09-28 06:20:00,SystemResetWarning,0828.3,5.00,000.00,028.4,027.0,000.0,036.8,030.2,12.0,0000.0,0012.14,0005.93,0005.19
2023-09-28 06:21:00,SystemResetWarning,0828.3,5.00,000.00,028.4,027.1,000.0,036.9,030.2,12.0,0000.0,0012.87,0005.95,0005.18
2023-09-28 06:22:00,SystemResetWarning,0828.3,5.00,000.00,028.4,027.2,000.0,036.9,030.2,12.0,0000.0,0012.83,0005.99,0005.19
2023-09-28 06:23:00,SystemResetWarning,0828.4,5.00,000.00,028.4,027.3,000.0,036.9,030.3,12.1,0000.0,0012.20,0005.99,0005.19
2023-09-28 06:24:00,SystemResetWarning,0828.4,5.00,000.00,028.5,027.3,000.0,036.9,030.3,12.6,0000.0,0012.15,0006.01,0005.20
2023-09-28 06:25:00,SystemResetWarning,0828.3,5.01,000.00,028.5,027.4,000.0,036.9,030.3,12.7,0000.0,0012.31,0006.06,0005.20
2023-09-28 06:26:00,SystemResetWarning,0828.3,5.01,000.00,028.5,027.4,000.0,036.9,030.3,12.4,0000.0,0012.54,0006.05,0005.19
2023-09-28 06:27:00,SystemResetWarning,0828.3,5.00,000.00,028.6,027.5,000.0,036.9,030.4,12.3,0000.0,0013.16,0006.02,0005.17
2023-09-28 06:28:00,SystemResetWarning,0828.4,5.00,000.00,028.6,027.5,000.0,037.0,030.4,12.1,0000.0,0013.75,0006.02,0005.15
2023-09-28 06:29:00,SystemResetWarning,0828.3,4.99,000.00,028.6,027.5,000.0,037.0,030.4,12.1,0000.0,0014.50,0005.97,0005.13
2023-09-28 06:30:00,SystemResetWarning,0828.3,4.99,000.00,028.7,027.6,000.0,037.0,030.4,12.0,0000.0,0014.50,0005.93,0005.14
2023-09-28 06:31:00,SystemResetWarning,0828.3,5.00,000.00,028.7,027.3,000.0,037.0,030.5,12.2,0000.0,0014.33,0005.90,0005.12
2023-09-28 06:32:00,SystemResetWarning,0828.3,5.00,000.00,028.6,025.6,000.0,037.0,030.3,12.5,0000.0,0013.74,0005.85,0005.10
2023-09-28 06:33:00,SystemResetWarning,0828.3,5.00,000.00,028.6,024.6,000.0,036.9,030.1,12.6,0000.0,0014.29,0005.81,0005.08
2023-09-28 06:34:00,SystemResetWarning,0828.3,5.01,000.00,028.5,024.7,000.0,036.9,029.9,12.6,0000.0,0014.53,0005.78,0005.06
2023-09-28 06:35:00,SystemResetWarning,0828.3,5.00,000.00,028.4,025.0,000.0,036.9,029.8,12.5,0000.0,0014.96,0005.72,0005.03
2023-09-28 06:36:00,SystemResetWarning,0828.3,5.00,000.00,028.3,025.3,000.0,036.9,029.9,12.5,0000.0,0014.81,0005.62,0005.00
2023-09-28 06:37:00,SystemResetWarning,0828.3,5.01,000.00,028.3,025.7,000.0,036.9,029.9,12.4,0000.0,0013.84,0005.59,0004.97
2023-09-28 06:38:00,SystemResetWarning,0828.3,5.00,000.00,028.3,026.0,000.0,036.9,030.0,12.4,0000.0,0013.16,0005.59,0004.96
2023-09-28 06:39:00,SystemResetWarning,0828.4,5.00,000.00,028.3,026.2,000.0,036.9,030.0,12.4,0000.0,0012.29,0005.54,0004.93
2023-09-28 06:40:00,SystemResetWarning,0828.3,5.00,000.00,028.3,026.5,000.0,036.9,030.0,12.8,0000.0,0012.06,0005.54,0004.91
2023-09-28 06:41:00,SystemResetWarning,0828.3,5.00,000.00,028.3,026.6,000.0,036.9,030.1,12.9,0000.0,0011.96,0005.54,0004.88
2023-09-28 06:42:00,SystemResetWarning,0828.4,5.00,000.00,028.3,026.8,000.0,036.9,030.1,12.9,0000.0,0012.23,0005.48,0004.84
2023-09-28 06:43:00,SystemResetWarning,0828.4,5.00,000.00,028.4,026.9,000.0,036.9,030.2,12.7,0000.0,0012.75,0005.48,0004.82
2023-09-28 06:44:00,SystemResetWarning,0828.3,5.00,000.00,028.4,027.1,000.0,036.9,030.2,12.5,0000.0,0011.92,0005.43,0004.79
2023-09-28 06:45:00,SystemResetWarning,0828.4,5.00,000.00,028.4,027.2,000.0,036.9,030.2,12.4,0000.0,0011.89,0005.43,0004.77
2023-09-28 06:46:00,SystemResetWarning,0828.3,5.00,000.00,028.5,027.2,000.0,036.9,030.3,12.6,0002.2,0011.76,0005.43,0004.77
2023-09-28 06:47:00,SystemResetWarning,0828.4,4.99,000.00,028.5,027.3,000.0,036.9,030.3,12.4,0001.7,0012.13,0005.44,0004.76
2023-09-28 06:48:00,SystemResetWarning,0828.4,5.00,000.00,028.5,027.4,000.0,036.9,030.3,12.5,0002.5,0012.22,0005.44,0004.75
2023-09-28 06:49:00,SystemResetWarning,0828.4,5.00,000.00,028.5,027.4,000.0,036.9,030.3,12.5,0002.9,0012.25,0005.41,0004.72
2023-09-28 06:50:00,SystemResetWarning,0828.4,5.00,000.00,028.6,027.5,000.0,037.0,030.4,12.5,0002.6,0012.80,0005.38,0004.69
2023-09-28 06:51:00,SystemResetWarning,0828.4,5.00,000.00,028.6,027.5,000.0,037.0,030.4,12.6,0000.0,0012.15,0005.31,0004.65
2023-09-28 06:52:00,SystemResetWarning,0828.4,5.00,000.00,028.6,027.6,000.0,037.0,030.4,12.2,0002.3,0012.24,0005.24,0004.60
2023-09-28 06:53:00,SystemResetWarning,0828.4,5.00,000.00,028.6,026.2,000.0,037.0,030.3,12.2,0000.0,0011.65,0005.18,0004.56
2023-09-28 06:54:00,SystemResetWarning,0828.4,5.01,000.00,028.6,024.7,000.0,036.9,030.1,11.9,0000.0,0010.96,0005.09,0004.51
2023-09-28 06:55:00,SystemResetWarning,0828.4,5.01,000.00,028.5,024.6,000.0,036.9,030.0,11.9,0000.0,0010.84,0005.04,0004.46
2023-09-28 06:56:00,SystemResetWarning,0828.4,5.01,000.00,028.4,024.8,000.0,036.9,029.9,12.0,0000.0,0010.60,0004.96,0004.41
2023-09-28 06:57:00,SystemResetWarning,0828.4,5.00,000.00,028.3,025.2,000.0,036.9,029.8,12.3,0000.0,0010.34,0004.89,0004.34
2023-09-28 06:58:00,SystemResetWarning,0828.4,5.00,000.00,028.3,025.5,000.0,036.9,029.9,12.5,0000.0,0009.79,0004.82,0004.28
2023-09-28 06:59:00,SystemResetWarning,0828.4,5.00,000.00,028.3,025.9,000.0,036.9,029.9,12.4,0000.0,0010.16,0004.76,0004.25
